Flag for Italy Weather past 2 weeks in Cagliari, Italy

Now
68 °F

Passing clouds.


Feels Like: 68 °F
Forecast: 72 / 86 °F
Wind: 3 mph from Northwest

Location: Cagliari / Elmas

Current Time: Jul 30, 2014 at 6:19:39 AM

Latest Report: Jul 30, 2014 at 5:50 AM


Visibility: N/A

Pressure: 29.83 "Hg

Humidity: 73%

Dew point: 59 °F

Location of CagliariLocation

Historic Weather in Cagliari — Graph

°F

Cagliari temperature yesterday

Maximum temperature yesterday: 86 °F (at 1:20 PM)
Minimum temperature yesterday: 68 °F (at 5:50 AM)
Average temperature yesterday: 76 °F

Past Weeks' High & Low Weather Summary

 TemperatureHumidityPressure
High97 °F (Jul 26, 1:50 PM)100% (Jul 16, 3:20 AM)30.07 "Hg (Jul 16, 3:20 AM)
Low64 °F (Jul 15, 6:20 AM)26% (Jul 26, 4:20 PM)29.71 "Hg (Jul 29, 4:50 PM)
Average78 °F65%29.93 "Hg
* Reported Jul 15 4:20 AM — Jul 30 4:50 AM, Cagliari, Weather by CustomWeather, © 2014

Note: Actual official high and low records may vary slightly from our data, if they occured in-between our weather recording intervals... More about our weather records

Advertising

Cagliari weather history for previous 24 hours

 ConditionsComfort  
Time TempWeatherWind HumidityBarometerVisibility
4:50 AM
Jul 30
68 °FPassing clouds.7 mph73%29.83 "HgN/A
4:20 AM68 °FClear.8 mph73%29.83 "Hg10 mi
3:50 AM70 °FClear.9 mph69%29.83 "Hg10 mi
3:20 AM68 °FClear.9 mph73%29.83 "Hg10 mi
2:50 AM68 °FClear.10 mph73%29.86 "Hg10 mi
2:20 AM70 °FClear.13 mph69%29.86 "Hg10 mi
1:50 AM70 °FClear.14 mph69%29.86 "Hg10 mi
1:20 AM70 °FClear.15 mph73%29.86 "Hg10 mi
12:50 AM70 °FClear.12 mph78%29.86 "Hg10 mi
12:20 AM68 °FClear.8 mph88%29.86 "Hg10 mi
11:50 PM
Jul 29
68 °FPassing clouds.9 mph88%29.86 "HgN/A
11:20 PM68 °FClear.10 mph88%29.86 "Hg10 mi
10:50 PM68 °FClear.15 mph88%29.83 "Hg10 mi
10:20 PM68 °FClear.18 mph88%29.80 "Hg10 mi
9:50 PM70 °FPassing clouds.21 mph83%29.80 "HgN/A
9:20 PM70 °FScattered clouds.24 mph78%29.80 "HgN/A
8:50 PM72 °FScattered clouds.22 mph73%29.80 "HgN/A
8:20 PM73 °FPassing clouds.23 mph74%29.80 "HgN/A
7:50 PM75 °FPassing clouds.24 mph69%29.77 "HgN/A
7:20 PM79 °FPassing clouds.24 mph61%29.74 "HgN/A
6:50 PM81 °FPassing clouds.20 mph58%29.74 "HgN/A
6:20 PM81 °FPassing clouds.2 mph74%29.74 "HgN/A
5:50 PM79 °FSunny.10 mph79%29.74 "Hg10 mi
5:20 PM79 °FPassing clouds.14 mph79%29.71 "HgN/A
4:50 PM82 °FSunny.15 mph70%29.71 "Hg10 mi
4:20 PM82 °FSunny.13 mph66%29.74 "Hg10 mi
3:50 PM86 °FPassing clouds.9 mph55%29.74 "HgN/A
3:20 PM84 °FPassing clouds.9 mph58%29.74 "HgN/A
2:50 PM84 °FSunny.13 mph58%29.74 "Hg10 mi
2:20 PM84 °FSunny.17 mph48%29.74 "Hg10 mi
1:50 PM84 °FSunny.16 mph51%29.74 "Hg10 mi
1:20 PM86 °FSunny.16 mph49%29.74 "Hg10 mi
12:50 PM84 °FSunny.15 mph55%29.77 "Hg10 mi
12:20 PM84 °FSunny.13 mph58%29.77 "Hg10 mi
11:50 AM84 °FSunny.13 mph55%29.77 "Hg10 mi
11:20 AM84 °FPassing clouds.10 mph55%29.77 "HgN/A
10:50 AM84 °FPassing clouds.8 mph48%29.77 "HgN/A
10:20 AM82 °FPassing clouds.6 mph66%29.77 "HgN/A
9:50 AM81 °FPassing clouds.6 mph66%29.77 "HgN/A
9:20 AM79 °FPassing clouds.3 mph74%29.80 "HgN/A
8:50 AM77 °FSunny.2 mph74%29.80 "Hg10 mi
8:20 AM73 °FSunny.2 mph83%29.77 "Hg10 mi
7:50 AM72 °FSunny.1 mph83%29.80 "Hg10 mi
7:20 AM68 °FSunny.3 mph94%29.77 "Hg10 mi
6:50 AM68 °FClear.6 mph94%29.77 "Hg10 mi
6:20 AM68 °FClear.7 mph94%29.77 "Hg10 mi
Weather by CustomWeather, © 2014

See weather overviewHow to use our weather pages